Terminal Aerodrome Forecast
Issued by NWS

Home | Current Version | Previous Version | Text Only | Print | Product List | Glossary On
Versions: 1 2 3 4 5 6 7 8 9 10 11 12 13 14 15 16 17 18 19 20 21
000
FTUS44 KBMX 241720
TAFEET
TAF
KEET 241720Z 2418/2518 18010G18KT P6SM SCT035
     FM250000 19007KT P6SM BKN050
     FM250800 26010G20KT 4SM TSRA BKN040CB
     FM250900 30005KT 4SM BR BKN020=

USA.gov is the U.S. government's official web portal to all federal, state and local government web resources and services.